Location: Hickory_Viewmont
(35.7830°N, 81.3170°W)
Time: 16:42:39
(UTC-05:00)

Daily predictions for brighter satellites

Satellite Brightness Start Highest point End
(mag) Time Altitude Azimuth Time Altitude Azimuth Time Altitude Azimuth
ATLAS 2AS CENTAUR R/B 3.7 17:26:59 10° SW 17:34:30 55° NW 17:42:27 10° NNE
Atlas Centaur 2 3.3 17:34:42 10° W 17:40:27 40° SSW 17:45:02 10° SE
Cosmos 1655 Rocket 4.1 17:34:40 10° N 17:41:05 89° ENE 17:47:30 10° S
Cosmos 1455 Rocket 3.1 17:36:45 10° N 17:41:07 62° E 17:45:26 10° SSE
DELTA 2 R/B (1) 3.8 17:39:35 10° WNW 17:45:04 58° N 17:50:35 10° E
Cosmos 158 Rocket 4.0 17:40:16 10° N 17:45:11 51° ENE 17:49:58 10° SE
Cosmos 1544 Rocket 3.5 17:41:11 10° N 17:45:32 77° E 17:49:50 10° S
Delta 2 Rocket 4.5 17:41:01 10° W 17:46:42 64° SSW 17:51:58 10° ESE
USA 215 3.4 17:41:05 10° ESE 17:47:23 53° NE 17:53:41 10° NW
USA 116 3.7 17:45:47 10° NNE 17:48:42 36° E 17:51:36 10° S
YAOGAN 1 3.3 17:45:19 10° SE 17:49:05 30° ENE 17:52:52 10° N
PSLV R/B 4.2 17:47:14 10° WNW 17:50:08 31° N 17:52:53 11° ENE
CSL-04 Debris 4.1 17:46:38 10° SSE 17:51:59 75° ENE 17:57:22 10° N
Meteor 2-4 Rocket 3.6 17:49:29 10° S 17:54:55 76° E 18:00:17 10° NNE
NOSS 3-4 (A) 3.6 17:50:01 10° SSW 17:56:05 59° ESE 18:02:18 10° NE
NOSS 3-4 (C) 3.6 17:50:07 10° SSW 17:56:10 58° ESE 18:02:23 10° NE
Cosmos 468 4.5 17:53:48 10° NNW 17:59:07 74° ENE 18:04:23 10° SSE
METEOR-M 4.5 17:56:32 10° SE 18:01:32 43° ENE 18:06:33 10° N
ISS -3.2 18:00:22 10° NW 18:03:37 60° SW 18:06:50 10° SE
AQUARIUS 4.2 17:59:23 10° SSE 18:03:52 89° WSW 18:08:23 10° NNW
Cosmos 2369 4.0 17:58:24 10° SSW 18:04:02 71° WNW 18:09:45 10° NNE
Cosmos 2278 3.9 17:58:33 10° SSW 18:04:12 75° WNW 18:09:56 10° NNE
Cosmos 724 4.3 17:58:45 10° NNW 18:04:28 59° ENE 18:10:12 10° SE
RESURS DK-1 3.8 18:03:00 10° SSE 18:05:59 20° ESE 18:07:48 15° ENE
SJ 16-02 1.7 18:02:40 10° SSW 18:07:01 67° WNW 18:11:25 10° N
CSL-04 Rocket 4.0 18:01:55 10° S 18:07:18 71° WSW 18:12:49 10° NNW
COSMO-SKYMED 1 2.9 18:04:31 10° NNE 18:08:42 45° E 18:12:51 10° S
Meteor 1-28 Rocket 3.7 18:07:46 10° N 18:11:29 61° WNW 18:15:13 10° SSW
CENTAUR R/B 4.0 18:08:05 10° N 18:14:21 25° NE 18:19:24 15° E
Hubble Space Telescope 3.2 18:13:37 10° WSW 18:16:32 19° SSW 18:19:27 10° SSE
DELTA 2 R/B (2) 4.1 18:15:41 10° WSW 18:18:13 66° SSE 18:20:07 23° E
Cosmos 1697 Rocket 2.7 18:13:49 10° SSW 18:19:28 88° ESE 18:25:09 10° NNE
NOSS 2-2 (E) 4.1 18:16:14 10° S 18:19:43 33° ESE 18:21:38 21° ENE
Cosmos 1515 3.6 18:17:19 10° S 18:21:03 62° E 18:24:49 10° NNE
CZ-4 R/B 1.7 18:21:05 10° S 18:24:54 65° W 18:28:49 10° NNW
CZ-2C R/B 4.2 18:20:52 10° N 18:25:33 65° WNW 18:30:15 10° SSW
EO 1 Del DPAF 3.3 18:22:11 12° NNE 18:25:42 55° E 18:29:25 10° S
NOSS 2-2 (C) 4.1 18:23:10 10° S 18:26:39 33° ESE 18:28:01 26° ENE
Shenzhou-11 Module 4.1 18:25:14 10° S 18:27:03 15° SE 18:27:25 15° SE
SPOT 3 Rocket 3.8 18:22:48 10° SE 18:27:42 45° ENE 18:32:36 10° N
Cosmos 1025 Rocket 2.9 18:25:17 10° S 18:29:33 66° E 18:33:48 10° NNE
Ariane Rocket 4.1 18:25:10 10° S 18:30:02 47° W 18:34:54 10° NNW
Meteor 1-15 Rocket 4.2 18:25:06 10° N 18:31:01 71° E 18:36:52 10° SSE
MONITOR-E 4.0 18:32:02 10° SSE 18:35:01 62° ENE 18:38:03 10° N
Okean 1-7 Rocket 3.6 18:31:29 10° S 18:35:46 57° E 18:39:24 14° NNE
ERS-2 2.1 18:32:13 10° SSE 18:35:47 55° ENE 18:39:23 10° N
Cosmos 2082 4.1 18:31:12 10° NNW 18:36:46 65° WSW 18:42:19 10° S
Cosmos 2084 3.8 18:35:01 10° SW 18:39:11 59° NW 18:41:44 21° NNE
Cosmos 494 Rocket 4.3 18:34:51 10° N 18:39:51 43° ENE 18:44:49 10° SE
Landsat 4 4.4 18:36:26 10° N 18:40:11 55° WNW 18:43:54 10° SSW
Thor Agena Rocket 4.4 18:40:38 28° E 18:41:17 29° E 18:45:47 10° SSE
Cosmos 2251 Rocket 4.2 18:37:46 10° N 18:42:22 30° ENE 18:42:22 30° ENE
Okean 2 3.5 18:42:39 10° SSW 18:46:44 73° W 18:50:49 10° N
Cosmos 2227 Rocket 3.6 18:42:23 10° NW 18:47:37 39° WSW 18:52:48 10° S
Cosmos 1269 Rocket 4.4 18:42:39 10° NNW 18:47:54 66° WSW 18:53:07 10° S
Cosmos 1184 Rocket 3.1 18:47:11 10° S 18:49:52 49° SE 18:49:52 49° SE
ALOS 2.1 18:48:13 10° SSE 18:52:52 85° ENE 18:57:34 10° N
DNEPR-1 R/B 4.4 18:51:27 10° NNW 18:56:37 49° ENE 18:59:46 27° ESE
Cosmos 1980 Rocket 2.4 18:55:18 10° SSW 19:00:57 73° WNW 19:05:03 20° NNE
Cosmos 1606 Rocket 3.9 19:02:50 44° SE 19:02:50 44° SE 19:06:03 10° SSE
Cosmos 1066 Rocket 4.0 18:58:48 10° S 19:04:20 76° E 19:07:39 25° NNE
SL-8 R/B 3.6 18:59:41 10° SW 19:04:29 73° SE 19:05:15 59° E
Cosmos 2297 Rocket 4.3 19:09:11 10° NW 19:13:53 27° WSW 19:18:33 10° SSW
NOSS 3-2 (C) 4.3 19:14:51 10° NW 19:22:35 72° WSW 19:30:51 10° SSE
Cosmos 1892 Rocket 3.7 19:21:03 10° SSW 19:25:31 74° W 19:25:32 74° W
Atlas Centaur 2 4.1 19:25:41 10° WSW 19:28:33 15° SSW 19:30:51 11° S
OAO 1 Rocket 4.4 19:23:42 10° W 19:29:00 70° SSW 19:29:12 69° S
Cosmos 2344 3.6 19:22:45 10° SSW 19:30:17 59° ESE 19:31:20 54° E
USA 215 4.5 19:24:25 10° SSE 19:30:26 39° SW 19:36:28 10° WNW
Lacrosse 5 rocket 2.7 19:27:02 10° SSW 19:29:24 33° SSW 19:29:24 33° SSW
DELTA 2 R/B (1) 3.4 19:26:12 10° WNW 19:31:48 89° NNE 19:31:48 89° NNE
Cosmos 2227 4.2 19:29:07 10° NNW 19:34:03 65° N 19:34:03 65° N
S3M 4.1 19:34:48 10° SSW 19:40:53 69° W 19:44:08 29° N
SL-16 R/B 2.4 19:37:57 10° SSW 19:42:32 60° S 19:42:32 60° S
RESURS DK-1 4.2 19:40:16 10° WSW 19:43:46 28° WNW 19:43:46 28° WNW
Cosmos 2322 Rocket 2.6 19:42:22 10° SSW 19:46:37 54° SSW 19:46:37 54° SSW
CENTAUR R/B 3.0 19:57:53 10° NNW 20:06:00 86° WSW 20:06:43 77° SSE
